EXS71G EGCC-LGTS

Flight info

Callsign EXS71G
Flight time N/A
Altitude 37000
Route SONEX1Y SONEX UL975 DESIG L603 DOLAS DCT NAVPI DCT NOLRU DCT DOJOH DCT DODEN DCT NEGIX DCT DINKU DCT BESNI DCT LATLO DCT OBEDI DCT KLAGY DCT TEBLI DCT TIVNU DCT KEB DCT MEDUX UM867 KOGAT DCT ERANA UT389 ALIKO ALIKO1L
Aircraft B738/M-SDE2E3FGHIRWXY/LB1

Departure

Time 2026-05-01 13:59
Airport Manchester Airport (EGCC)

Arrival

Time N/A
Airport Thessaloniki Macedonia International Airport (LGTS)
Time Latitude Longitude Altitude Speed Heading
2026-05-01 13:01 53.36078 -2.27244 243 ft 0 kts 359°
2026-05-01 13:35 53.36075 -2.27244 243 ft 0 kts 359°
2026-05-01 13:35 53.36068 -2.27244 243 ft 2 kts 359°
2026-05-01 13:35 53.36035 -2.27243 243 ft 2 kts 359°
2026-05-01 13:36 53.36029 -2.27243 243 ft 0 kts 359°
2026-05-01 13:36 53.36028 -2.27243 243 ft 0 kts 359°
2026-05-01 13:36 53.36019 -2.27243 243 ft 2 kts 359°
2026-05-01 13:37 53.36012 -2.27243 243 ft 0 kts 359°
2026-05-01 13:49 53.36014 -2.27244 243 ft 0 kts 346°
2026-05-01 13:49 53.36015 -2.27250 243 ft 0 kts 304°
2026-05-01 13:49 53.36014 -2.27258 243 ft 2 kts 269°
2026-05-01 13:49 53.36009 -2.27301 243 ft 5 kts 242°
2026-05-01 13:50 53.35987 -2.27318 243 ft 6 kts 187°
2026-05-01 13:50 53.35910 -2.27321 243 ft 11 kts 180°
2026-05-01 13:50 53.35824 -2.27318 243 ft 13 kts 178°
2026-05-01 13:50 53.35746 -2.27251 243 ft 13 kts 140°
2026-05-01 13:51 53.35709 -2.27202 243 ft 5 kts 142°
2026-05-01 13:51 53.35704 -2.27195 243 ft 0 kts 142°
2026-05-01 13:53 53.35703 -2.27195 243 ft 0 kts 142°
2026-05-01 13:53 53.35684 -2.27170 243 ft 7 kts 142°
2026-05-01 13:54 53.35625 -2.27090 244 ft 14 kts 140°
2026-05-01 13:54 53.35546 -2.26982 242 ft 15 kts 141°
2026-05-01 13:54 53.35461 -2.26892 243 ft 14 kts 176°
2026-05-01 13:54 53.35417 -2.26943 242 ft 7 kts 233°
2026-05-01 13:55 53.35397 -2.26987 242 ft 7 kts 233°
2026-05-01 13:55 53.35367 -2.27050 243 ft 7 kts 230°
2026-05-01 13:55 53.35336 -2.27111 243 ft 8 kts 229°
2026-05-01 13:55 53.35282 -2.27202 242 ft 13 kts 206°
2026-05-01 13:56 53.35190 -2.27238 241 ft 14 kts 192°
2026-05-01 13:56 53.35157 -2.27249 240 ft 2 kts 191°
2026-05-01 13:56 53.35150 -2.27252 240 ft 0 kts 191°
2026-05-01 13:57 53.35143 -2.27254 240 ft 4 kts 191°
2026-05-01 13:58 53.35086 -2.27274 237 ft 12 kts 191°
2026-05-01 13:58 53.35007 -2.27328 238 ft 13 kts 227°
2026-05-01 13:58 53.34935 -2.27473 232 ft 30 kts 231°
2026-05-01 13:58 53.34649 -2.28067 228 ft 99 kts 232°
2026-05-01 13:59 53.34087 -2.29237 218 ft 156 kts 233°
2026-05-01 13:59 53.33312 -2.30778 512 ft 182 kts 230°
2026-05-01 13:59 53.32483 -2.32458 1173 ft 193 kts 230°
2026-05-01 13:59 53.31701 -2.34316 1950 ft 199 kts 245°
2026-05-01 14:00 53.31474 -2.36550 2670 ft 206 kts 275°
2026-05-01 14:00 53.32061 -2.38863 2945 ft 233 kts 310°
2026-05-01 14:00 53.33462 -2.40396 3394 ft 252 kts 338°
2026-05-01 14:00 53.35206 -2.41287 3858 ft 269 kts 343°
2026-05-01 14:01 53.37014 -2.42152 4642 ft 271 kts 342°
2026-05-01 14:01 53.38860 -2.43062 5179 ft 283 kts 342°
2026-05-01 14:01 53.40772 -2.44080 5114 ft 292 kts 339°
2026-05-01 14:01 53.42711 -2.45047 5032 ft 292 kts 351°
2026-05-01 14:02 53.44710 -2.44800 4984 ft 288 kts 20°
2026-05-01 14:02 53.46413 -2.43170 4992 ft 281 kts 41°
2026-05-01 14:02 53.47870 -2.41035 5259 ft 270 kts 44°
2026-05-01 14:02 53.49257 -2.38937 6044 ft 270 kts 45°
2026-05-01 14:03 53.50659 -2.36824 6784 ft 272 kts 45°
2026-05-01 14:03 53.52052 -2.34728 7503 ft 273 kts 45°
2026-05-01 14:03 53.53471 -2.32591 8227 ft 273 kts 45°
2026-05-01 14:03 53.54889 -2.30468 8991 ft 273 kts 45°
2026-05-01 14:04 53.56307 -2.28357 9758 ft 271 kts 45°
2026-05-01 14:04 53.57712 -2.26272 10494 ft 268 kts 45°
2026-05-01 14:04 53.59105 -2.24210 11193 ft 265 kts 45°
2026-05-01 14:04 53.60490 -2.22161 11737 ft 271 kts 45°
2026-05-01 14:05 53.61960 -2.19964 11912 ft 293 kts 45°
2026-05-01 14:05 53.63533 -2.17588 12098 ft 315 kts 45°
2026-05-01 14:05 53.65190 -2.15063 12279 ft 336 kts 45°
2026-05-01 14:05 53.66971 -2.12329 12446 ft 357 kts 45°
2026-05-01 14:06 53.68859 -2.09416 12586 ft 377 kts 45°
2026-05-01 14:06 53.70835 -2.06351 12706 ft 396 kts 45°
2026-05-01 14:06 53.72702 -2.02854 12905 ft 406 kts 62°
2026-05-01 14:06 53.73646 -1.98415 13354 ft 402 kts 87°
2026-05-01 14:07 53.73450 -1.93791 14050 ft 393 kts 109°
2026-05-01 14:07 53.72442 -1.89535 14624 ft 390 kts 123°
2026-05-01 14:07 53.70855 -1.85852 15131 ft 389 kts 133°
2026-05-01 14:08 53.67323 -1.78858 16230 ft 394 kts 134°
2026-05-01 14:08 53.65555 -1.75380 16736 ft 397 kts 133°
2026-05-01 14:08 53.63759 -1.71818 17248 ft 400 kts 133°
2026-05-01 14:08 53.61956 -1.68224 17751 ft 403 kts 133°
2026-05-01 14:09 53.60144 -1.64594 18249 ft 406 kts 133°
2026-05-01 14:09 53.58322 -1.60942 18690 ft 409 kts 133°
2026-05-01 14:09 53.56486 -1.57261 19071 ft 411 kts 133°
2026-05-01 14:09 53.54645 -1.53573 19102 ft 412 kts 133°
2026-05-01 14:10 53.52800 -1.49882 19138 ft 414 kts 133°
2026-05-01 14:10 53.50958 -1.46204 19409 ft 418 kts 133°
2026-05-01 14:10 53.49084 -1.42469 19909 ft 418 kts 133°
2026-05-01 14:10 53.47209 -1.38732 20368 ft 420 kts 133°
2026-05-01 14:11 53.45318 -1.34976 20775 ft 422 kts 133°
2026-05-01 14:11 53.41875 -1.26888 21522 ft 434 kts 121°
2026-05-01 14:11 53.40679 -1.22208 21885 ft 441 kts 111°
2026-05-01 14:12 53.39812 -1.17257 22248 ft 445 kts 110°
2026-05-01 14:12 53.38951 -1.12333 22605 ft 447 kts 110°
2026-05-01 14:12 53.38058 -1.07337 22950 ft 449 kts 111°
2026-05-01 14:12 53.37145 -1.02323 23295 ft 451 kts 111°
2026-05-01 14:13 53.36217 -0.97285 23617 ft 453 kts 111°
2026-05-01 14:13 53.35281 -0.92236 23911 ft 455 kts 111°
2026-05-01 14:13 53.34339 -0.87165 24203 ft 457 kts 111°
2026-05-01 14:13 53.33392 -0.82077 24497 ft 459 kts 111°
2026-05-01 14:14 53.32441 -0.76974 24768 ft 461 kts 111°
2026-05-01 14:14 53.31485 -0.71857 25036 ft 462 kts 111°
2026-05-01 14:14 53.30533 -0.66785 25303 ft 464 kts 112°
2026-05-01 14:14 53.29562 -0.61633 25577 ft 465 kts 112°
2026-05-01 14:15 53.28587 -0.56471 25836 ft 467 kts 112°
2026-05-01 14:15 53.27605 -0.51278 26080 ft 469 kts 112°
2026-05-01 14:15 53.26620 -0.46087 26330 ft 470 kts 112°
2026-05-01 14:15 53.25631 -0.40877 26605 ft 471 kts 112°
2026-05-01 14:16 53.24647 -0.35662 26949 ft 470 kts 112°
2026-05-01 14:16 53.23667 -0.30481 27342 ft 468 kts 112°
2026-05-01 14:16 53.22682 -0.25315 27723 ft 466 kts 112°
2026-05-01 14:16 53.21703 -0.20237 28067 ft 465 kts 112°
2026-05-01 14:17 53.20709 -0.15106 28396 ft 465 kts 112°
2026-05-01 14:17 53.19715 -0.09973 28746 ft 464 kts 112°
2026-05-01 14:17 53.18723 -0.04862 29115 ft 463 kts 112°
2026-05-01 14:17 53.17732 0.00238 29499 ft 462 kts 112°
2026-05-01 14:18 53.16746 0.05315 29845 ft 461 kts 112°
2026-05-01 14:18 53.15758 0.10396 30183 ft 460 kts 112°
2026-05-01 14:18 53.14771 0.15464 30470 ft 459 kts 112°
2026-05-01 14:18 53.14118 0.18811 30665 ft 459 kts 112°
2026-05-01 14:19 53.12812 0.25488 31049 ft 457 kts 112°
2026-05-01 14:19 53.11824 0.30520 31331 ft 457 kts 112°
2026-05-01 14:19 53.10837 0.35535 31605 ft 456 kts 112°
2026-05-01 14:19 53.09849 0.40541 31873 ft 455 kts 113°
2026-05-01 14:20 53.08861 0.45533 32143 ft 454 kts 113°
2026-05-01 14:20 53.06886 0.55477 32691 ft 452 kts 113°
2026-05-01 14:20 53.05897 0.60436 32917 ft 452 kts 113°
2026-05-01 14:21 53.04908 0.65383 33171 ft 451 kts 113°
2026-05-01 14:21 53.03918 0.70321 33421 ft 450 kts 113°
2026-05-01 14:21 53.02941 0.75184 33656 ft 450 kts 113°
2026-05-01 14:22 53.00959 0.85014 34105 ft 449 kts 113°
2026-05-01 14:22 52.99966 0.89926 34290 ft 449 kts 113°
2026-05-01 14:22 52.98970 0.94838 34460 ft 449 kts 113°
2026-05-01 14:22 52.97972 0.99745 34617 ft 449 kts 113°
2026-05-01 14:23 52.96938 1.04621 34783 ft 448 kts 114°
2026-05-01 14:23 52.95852 1.09466 34963 ft 448 kts 115°
2026-05-01 14:23 52.94746 1.14291 35120 ft 448 kts 115°
2026-05-01 14:23 52.93632 1.19120 35164 ft 449 kts 115°
2026-05-01 14:24 52.91416 1.28748 35176 ft 450 kts 115°
2026-05-01 14:24 52.89202 1.38411 35183 ft 449 kts 114°
2026-05-01 14:25 52.86988 1.48061 35176 ft 448 kts 114°
2026-05-01 14:25 52.84770 1.57691 35245 ft 447 kts 114°
2026-05-01 14:26 52.81441 1.72052 35519 ft 448 kts 114°
2026-05-01 14:26 52.80325 1.76848 35728 ft 446 kts 114°
2026-05-01 14:27 52.79211 1.81623 35921 ft 444 kts 114°
2026-05-01 14:27 52.78103 1.86366 36110 ft 442 kts 114°
2026-05-01 14:27 52.76996 1.91090 36316 ft 440 kts 114°
2026-05-01 14:28 52.74794 2.00456 36716 ft 435 kts 114°
2026-05-01 14:28 52.73700 2.05094 36910 ft 433 kts 114°
2026-05-01 14:28 52.72622 2.09654 37116 ft 430 kts 114°
2026-05-01 14:28 52.71536 2.14235 37315 ft 428 kts 114°
2026-05-01 14:29 52.69359 2.23389 37407 ft 431 kts 114°
2026-05-01 14:30 52.64919 2.41946 37412 ft 439 kts 114°
2026-05-01 14:31 52.61532 2.56002 37418 ft 445 kts 114°
2026-05-01 14:31 52.59229 2.65510 37416 ft 449 kts 114°
2026-05-01 14:32 52.56903 2.75079 37417 ft 452 kts 114°
2026-05-01 14:32 52.54548 2.84680 37416 ft 453 kts 115°
2026-05-01 14:33 52.51920 2.94078 37411 ft 453 kts 118°
2026-05-01 14:33 52.49180 3.03298 37414 ft 452 kts 118°
2026-05-01 14:34 52.46434 3.12557 37415 ft 451 kts 118°
2026-05-01 14:34 52.43712 3.21802 37415 ft 450 kts 118°
2026-05-01 14:35 52.40997 3.31031 37418 ft 449 kts 118°
2026-05-01 14:35 52.38305 3.40155 37416 ft 448 kts 118°
2026-05-01 14:36 52.35592 3.49312 37418 ft 447 kts 118°
2026-05-01 14:36 52.32878 3.58437 37419 ft 446 kts 118°
2026-05-01 14:37 52.30161 3.67533 37425 ft 445 kts 118°
2026-05-01 14:37 52.27457 3.76554 37425 ft 445 kts 118°
2026-05-01 14:38 52.24729 3.85619 37420 ft 445 kts 118°
2026-05-01 14:38 52.21986 3.94701 37435 ft 448 kts 118°
2026-05-01 14:39 52.19214 4.03842 37428 ft 452 kts 118°
2026-05-01 14:39 52.16432 4.12984 37423 ft 455 kts 118°
2026-05-01 14:40 52.13610 4.22222 37416 ft 456 kts 118°
2026-05-01 14:40 52.10774 4.31472 37414 ft 457 kts 118°
2026-05-01 14:41 52.07927 4.40721 37414 ft 457 kts 118°
2026-05-01 14:41 52.05074 4.49956 37405 ft 457 kts 118°
2026-05-01 14:42 52.02234 4.59112 37406 ft 457 kts 118°
2026-05-01 14:42 51.99373 4.68302 37414 ft 456 kts 118°
2026-05-01 14:43 51.96507 4.77470 37412 ft 455 kts 118°
2026-05-01 14:43 51.93639 4.86612 37424 ft 455 kts 118°
2026-05-01 14:44 51.90766 4.95738 37421 ft 455 kts 118°
2026-05-01 14:44 51.86463 5.09342 37428 ft 455 kts 119°
2026-05-01 14:45 51.82122 5.22983 37427 ft 455 kts 118°
2026-05-01 14:46 51.79216 5.32075 37428 ft 455 kts 118°
2026-05-01 14:46 51.74848 5.45686 37434 ft 455 kts 118°
2026-05-01 14:47 51.71943 5.54692 37438 ft 456 kts 119°
2026-05-01 14:48 51.67539 5.68282 37440 ft 456 kts 119°
2026-05-01 14:48 51.63110 5.81877 37436 ft 457 kts 118°
2026-05-01 14:49 51.57186 5.99948 37475 ft 459 kts 118°
2026-05-01 14:50 51.51194 6.18101 37466 ft 461 kts 118°
2026-05-01 14:51 51.46157 6.31118 37463 ft 460 kts 125°
2026-05-01 14:52 51.40662 6.43771 37462 ft 461 kts 125°
2026-05-01 14:53 51.35217 6.56475 37459 ft 462 kts 125°
2026-05-01 14:53 51.31619 6.64895 37464 ft 462 kts 125°
2026-05-01 14:54 51.27992 6.73362 37468 ft 462 kts 125°
2026-05-01 14:54 51.24353 6.81822 37465 ft 462 kts 125°
2026-05-01 14:55 51.20710 6.90261 37467 ft 462 kts 125°
2026-05-01 14:55 51.17059 6.98692 37465 ft 462 kts 125°
2026-05-01 14:56 51.13426 7.07054 37471 ft 462 kts 125°
2026-05-01 14:56 51.09763 7.15459 37473 ft 462 kts 125°
2026-05-01 14:57 51.06094 7.23850 37473 ft 462 kts 125°
2026-05-01 14:57 51.00580 7.36410 37479 ft 462 kts 125°
2026-05-01 14:58 50.96890 7.44783 37476 ft 462 kts 125°
2026-05-01 14:58 50.93195 7.53141 37482 ft 462 kts 125°
2026-05-01 14:59 50.89516 7.61434 37487 ft 463 kts 125°
2026-05-01 14:59 50.85812 7.69763 37501 ft 463 kts 125°
2026-05-01 15:00 50.81764 7.77649 37509 ft 462 kts 137°
2026-05-01 15:00 50.79408 7.81141 37516 ft 462 kts 138°
2026-05-01 15:01 50.74661 7.88001 37517 ft 463 kts 138°
2026-05-01 15:01 50.69937 7.94923 37524 ft 463 kts 137°
2026-05-01 15:02 50.65270 8.01827 37517 ft 463 kts 137°
2026-05-01 15:02 50.60568 8.08776 37521 ft 463 kts 136°
2026-05-01 15:03 50.56383 8.16500 37518 ft 464 kts 128°
2026-05-01 15:03 50.52421 8.24519 37507 ft 464 kts 128°
2026-05-01 15:04 50.48418 8.32479 37513 ft 465 kts 129°
2026-05-01 15:04 50.44372 8.40395 37517 ft 465 kts 129°
2026-05-01 15:05 50.40311 8.48312 37509 ft 465 kts 129°
2026-05-01 15:05 50.36202 8.56088 37507 ft 466 kts 132°
2026-05-01 15:06 50.32041 8.63099 37504 ft 466 kts 134°
2026-05-01 15:06 50.27557 8.70441 37499 ft 466 kts 134°
2026-05-01 15:07 50.23094 8.77799 37502 ft 467 kts 133°
2026-05-01 15:07 50.18668 8.85141 37503 ft 467 kts 133°
2026-05-01 15:08 50.14206 8.92543 37504 ft 467 kts 133°
2026-05-01 15:08 50.09743 8.99925 37506 ft 467 kts 133°
2026-05-01 15:09 50.05312 9.07231 37510 ft 467 kts 133°
2026-05-01 15:09 50.00849 9.14567 37501 ft 467 kts 133°
2026-05-01 15:10 49.96372 9.21905 37518 ft 467 kts 133°
2026-05-01 15:10 49.89653 9.32876 37520 ft 467 kts 133°
2026-05-01 15:11 49.82953 9.43771 37521 ft 467 kts 133°
2026-05-01 15:12 49.78471 9.51033 37522 ft 467 kts 133°
2026-05-01 15:12 49.71727 9.61919 37529 ft 467 kts 133°
2026-05-01 15:14 49.60470 9.79990 37525 ft 467 kts 133°
2026-05-01 15:14 49.53706 9.90785 37523 ft 466 kts 133°
2026-05-01 15:15 49.44708 10.05077 37524 ft 465 kts 133°
2026-05-01 15:16 49.35681 10.19336 37502 ft 466 kts 133°
2026-05-01 15:17 49.31188 10.26403 37334 ft 463 kts 133°
2026-05-01 15:18 49.24454 10.36963 37356 ft 463 kts 133°
2026-05-01 15:19 49.15190 10.50873 37349 ft 468 kts 135°
2026-05-01 15:19 49.08150 10.61259 37351 ft 469 kts 134°
2026-05-01 15:20 49.01154 10.71588 37353 ft 468 kts 134°
2026-05-01 15:21 48.96473 10.78481 37361 ft 467 kts 134°
2026-05-01 15:21 48.92579 10.84199 37345 ft 467 kts 134°
2026-05-01 15:22 48.84816 10.95560 37331 ft 465 kts 134°
2026-05-01 15:22 48.80152 11.02361 37330 ft 465 kts 134°
2026-05-01 15:23 48.76262 11.08019 37326 ft 464 kts 134°
2026-05-01 15:23 48.71596 11.14789 37310 ft 464 kts 134°
2026-05-01 15:24 48.66919 11.21561 37322 ft 464 kts 134°
2026-05-01 15:24 48.62349 11.28422 37331 ft 462 kts 131°
2026-05-01 15:25 48.58049 11.35585 37316 ft 462 kts 129°
2026-05-01 15:25 48.53792 11.42768 37343 ft 462 kts 130°
2026-05-01 15:26 48.49480 11.49963 37344 ft 462 kts 130°
2026-05-01 15:26 48.45151 11.57119 37328 ft 462 kts 130°
2026-05-01 15:27 48.40812 11.64259 37325 ft 462 kts 130°
2026-05-01 15:28 48.34290 11.74958 37323 ft 462 kts 130°
2026-05-01 15:28 48.29951 11.82051 37327 ft 463 kts 130°
2026-05-01 15:29 48.23397 11.92734 37324 ft 463 kts 130°
2026-05-01 15:30 48.15381 12.05737 37330 ft 463 kts 130°
2026-05-01 15:31 48.01507 12.28095 37327 ft 463 kts 130°
2026-05-01 15:32 47.92743 12.42120 37334 ft 463 kts 130°
2026-05-01 15:34 47.79523 12.63138 37324 ft 463 kts 130°